• In Belgium
  • List of Countries
  • For 7 days
  • Water Temperature
  • Satellite Maps
  • Weather Map
  • Weather Widgets
  • user-avatar
    Login

    Hourly Weather Yerevan

    Today, 22 July, Sunday

    Time Temperature Precipitation Wind Pressure Humidity
    00:00 +24°C° 0.1 mm 3 mps 686 mmHg 66%
    01:00 +24°C° 0.1 mm 3 mps 686 mmHg 69%
    02:00 +22°C° 0.1 mm 3 mps 686 mmHg 71%
    03:00 +22°C° 0 mm 3 mps 685 mmHg 72%
    04:00 +22°C° 0.3 mm 3 mps 686 mmHg 72%
    05:00 +22°C° 0.3 mm 3 mps 686 mmHg 71%
    06:00 +22°C° 0.3 mm 3 mps 686 mmHg 71%
    07:00 +25°C° 0.1 mm 2 mps 686 mmHg 64%
    08:00 +27°C° 0.1 mm 2 mps 686 mmHg 58%
    09:00 +29°C° 0.1 mm 2 mps 686 mmHg 51%
    10:00 +30°C° 0.1 mm 2 mps 686 mmHg 47%
    11:00 +31°C° 0.1 mm 2 mps 686 mmHg 42%
    12:00 +32°C° 0.1 mm 2 mps 686 mmHg 37%
    13:00 +34°C° 0.2 mm 3 mps 685 mmHg 36%
    14:00 +34°C° 0.2 mm 3 mps 685 mmHg 35%
    15:00 +35°C° 0.2 mm 3 mps 685 mmHg 34%
    16:00 +34°C° 0.4 mm 3 mps 685 mmHg 37%
    17:00 +33°C° 0.4 mm 3 mps 685 mmHg 39%
    18:00 +31°C° 0.4 mm 3 mps 685 mmHg 41%
    19:00 +29°C° 0.3 mm 3 mps 685 mmHg 48%
    20:00 +28°C° 0.3 mm 3 mps 685 mmHg 55%
    21:00 +26°C° 0.3 mm 3 mps 685 mmHg 62%
    22:00 +25°C° 0.2 mm 2 mps 685 mmHg 64%
    23:00 +24°C° 0.2 mm 2 mps 685 mmHg 67%

    Tomorrow, 23 July, Monday

    Time Temperature Precipitation Wind Pressure Humidity
    00:00 +24°C° 0.2 mm 2 mps 685 mmHg 69%
    01:00 +23°C° 0.2 mm 2 mps 685 mmHg 71%
    02:00 +23°C° 0.2 mm 2 mps 685 mmHg 73%
    03:00 +21°C° 0.2 mm 2 mps 685 mmHg 75%
    04:00 +23°C° 0.1 mm 2 mps 685 mmHg 74%
    05:00 +23°C° 0.1 mm 2 mps 685 mmHg 73%
    06:00 +23°C° 0.1 mm 2 mps 685 mmHg 72%
    07:00 +25°C° 0.1 mm 2 mps 685 mmHg 64%
    08:00 +27°C° 0.1 mm 2 mps 685 mmHg 56%
    09:00 +28°C° 0.1 mm 2 mps 685 mmHg 48%
    10:00 +30°C° 0.3 mm 2 mps 685 mmHg 44%
    11:00 +31°C° 0.3 mm 2 mps 685 mmHg 40%
    12:00 +32°C° 0.3 mm 2 mps 684 mmHg 36%
    13:00 +34°C° 0.3 mm 2 mps 684 mmHg 35%
    14:00 +34°C° 0.3 mm 2 mps 684 mmHg 35%
    15:00 +34°C° 0.3 mm 2 mps 683 mmHg 34%
    16:00 +32°C° 0.6 mm 2 mps 683 mmHg 38%
    17:00 +31°C° 0.6 mm 2 mps 683 mmHg 41%
    18:00 +30°C° 0.6 mm 2 mps 683 mmHg 44%
    19:00 +29°C° 0.5 mm 2 mps 684 mmHg 50%
    20:00 +27°C° 0.5 mm 2 mps 684 mmHg 55%
    21:00 +25°C° 0.5 mm 1 mps 684 mmHg 60%
    22:00 +25°C° 0.2 mm 1 mps 685 mmHg 62%
    23:00 +24°C° 0.2 mm 1 mps 685 mmHg 63%

    Day after tomorrow, 24 July, Tuesday

    Time Temperature Precipitation Wind Pressure Humidity
    00:00 +24°C° 0.2 mm 1 mps 685 mmHg 65%
    01:00 +23°C° 0.2 mm 1 mps 685 mmHg 67%
    02:00 +23°C° 0.2 mm 1 mps 685 mmHg 68%
    03:00 +22°C° 0.2 mm 1 mps 685 mmHg 70%
    04:00 +23°C° 0.1 mm 1 mps 685 mmHg 69%
    05:00 +23°C° 0.1 mm 1 mps 685 mmHg 67%
    06:00 +24°C° 0.1 mm 1 mps 685 mmHg 66%
    07:00 +26°C° 0 mm 1 mps 685 mmHg 58%
    08:00 +28°C° 0 mm 1 mps 685 mmHg 49%
    09:00 +30°C° 0 mm 2 mps 685 mmHg 41%
    10:00 +31°C° 0 mm 2 mps 685 mmHg 37%
    11:00 +34°C° 0 mm 2 mps 685 mmHg 33%
    12:00 +35°C° 0 mm 2 mps 685 mmHg 29%
    13:00 +36°C° 0 mm 2 mps 685 mmHg 27%
    14:00 +37°C° 0 mm 2 mps 685 mmHg 25%
    15:00 +37°C° 0 mm 3 mps 684 mmHg 24%
    16:00 +37°C° 0 mm 2 mps 684 mmHg 26%
    17:00 +36°C° 0 mm 2 mps 685 mmHg 27%
    18:00 +36°C° 0 mm 2 mps 685 mmHg 29%
    19:00 +32°C° 0 mm 2 mps 685 mmHg 35%
    20:00 +30°C° 0 mm 2 mps 685 mmHg 40%
    21:00 +28°C° 0 mm 2 mps 685 mmHg 46%
    22:00 +28°C° 0 mm 2 mps 685 mmHg 49%
    23:00 +27°C° 0 mm 2 mps 686 mmHg 52%

    25 July, Wednesday

    Time Temperature Precipitation Wind Pressure Humidity
    00:00 +27°C° 0 mm 2 mps 686 mmHg 56%
    01:00 +26°C° 0 mm 2 mps 686 mmHg 56%
    02:00 +26°C° 0 mm 2 mps 686 mmHg 56%
    03:00 +25°C° 0 mm 2 mps 686 mmHg 57%
    04:00 +26°C° 0 mm 2 mps 686 mmHg 56%
    05:00 +26°C° 0 mm 1 mps 686 mmHg 54%
    06:00 +27°C° 0 mm 1 mps 686 mmHg 53%
    07:00 +29°C° 0 mm 2 mps 686 mmHg 46%
    08:00 +31°C° 0 mm 2 mps 686 mmHg 39%
    09:00 +35°C° 0 mm 2 mps 687 mmHg 32%
    10:00 +36°C° 0 mm 3 mps 686 mmHg 29%
    11:00 +38°C° 0 mm 3 mps 686 mmHg 25%
    12:00 +39°C° 0 mm 3 mps 686 mmHg 22%
    13:00 +41°C° 0 mm 4 mps 686 mmHg 22%
    14:00 +41°C° 0 mm 4 mps 685 mmHg 21%
    15:00 +42°C° 0 mm 4 mps 685 mmHg 20%
    16:00 +41°C° 0.1 mm 4 mps 685 mmHg 23%
    17:00 +40°C° 0.1 mm 4 mps 685 mmHg 25%
    18:00 +38°C° 0.1 mm 3 mps 684 mmHg 28%
    19:00 +36°C° 0.1 mm 3 mps 685 mmHg 35%
    20:00 +34°C° 0.1 mm 3 mps 685 mmHg 42%
    21:00 +31°C° 0.1 mm 2 mps 685 mmHg 49%
    22:00 +30°C° 0 mm 2 mps 685 mmHg 51%
    23:00 +29°C° 0 mm 2 mps 685 mmHg 54%

    26 July, Thursday

    Time Temperature Precipitation Wind Pressure Humidity
    00:00 +28°C° 0 mm 2 mps 685 mmHg 57%
    01:00 +28°C° 0 mm 2 mps 685 mmHg 57%
    02:00 +27°C° 0 mm 2 mps 685 mmHg 58%
    03:00 +27°C° 0 mm 2 mps 685 mmHg 59%
    04:00 +27°C° 0 mm 2 mps 686 mmHg 58%
    05:00 +27°C° 0 mm 2 mps 686 mmHg 58%
    06:00 +28°C° 0 mm 2 mps 686 mmHg 57%
    07:00 +30°C° 0 mm 2 mps 686 mmHg 50%
    08:00 +32°C° 0 mm 2 mps 686 mmHg 44%
    09:00 +35°C° 0 mm 2 mps 686 mmHg 37%
    10:00 +37°C° 0 mm 2 mps 686 mmHg 33%
    11:00 +38°C° 0 mm 2 mps 686 mmHg 30%
    12:00 +40°C° 0 mm 2 mps 686 mmHg 26%
    13:00 +40°C° 0.2 mm 3 mps 686 mmHg 25%
    14:00 +42°C° 0.2 mm 3 mps 685 mmHg 24%
    15:00 +42°C° 0.2 mm 4 mps 685 mmHg 23%
    16:00 +41°C° 0.3 mm 4 mps 685 mmHg 26%
    17:00 +40°C° 0.3 mm 4 mps 685 mmHg 30%
    18:00 +38°C° 0.3 mm 4 mps 685 mmHg 33%
    19:00 +36°C° 0 mm 3 mps 685 mmHg 40%
    20:00 +34°C° 0 mm 3 mps 685 mmHg 48%
    21:00 +30°C° 0 mm 3 mps 686 mmHg 55%
    22:00 +30°C° 0 mm 3 mps 686 mmHg 58%
    23:00 +29°C° 0 mm 3 mps 686 mmHg 60%

    27 July, Friday

    Time Temperature Precipitation Wind Pressure Humidity
    00:00 +28°C° 0 mm 3 mps 686 mmHg 62%
    01:00 +28°C° 0 mm 3 mps 686 mmHg 63%
    02:00 +27°C° 0 mm 3 mps 686 mmHg 64%
    03:00 +27°C° 0 mm 2 mps 686 mmHg 64%
    04:00 +27°C° 0 mm 2 mps 686 mmHg 63%
    05:00 +27°C° 0 mm 2 mps 687 mmHg 62%
    06:00 +27°C° 0 mm 2 mps 687 mmHg 61%
    07:00 +29°C° 0 mm 2 mps 687 mmHg 54%
    08:00 +31°C° 0 mm 2 mps 687 mmHg 47%
    09:00 +34°C° 0 mm 2 mps 687 mmHg 40%
    10:00 +36°C° 0 mm 2 mps 687 mmHg 36%
    11:00 +37°C° 0 mm 2 mps 686 mmHg 33%
    12:00 +39°C° 0 mm 3 mps 686 mmHg 29%
    13:00 +39°C° 0 mm 3 mps 686 mmHg 29%
    14:00 +40°C° 0 mm 3 mps 685 mmHg 28%
    15:00 +41°C° 0 mm 4 mps 685 mmHg 27%
    16:00 +40°C° 0 mm 4 mps 685 mmHg 30%
    17:00 +39°C° 0 mm 5 mps 685 mmHg 33%
    18:00 +38°C° 0 mm 6 mps 685 mmHg 36%
    19:00 +35°C° 0 mm 5 mps 685 mmHg 40%
    20:00 +33°C° 0 mm 4 mps 686 mmHg 44%
    21:00 +30°C° 0 mm 3 mps 686 mmHg 48%
    22:00 +29°C° 0 mm 3 mps 686 mmHg 49%
    23:00 +29°C° 0 mm 3 mps 686 mmHg 49%
    Show more